Location: Melbourne
(37.8170°S, 144.9670°E)
Time: 14:30:46
(UTC+10:00)

Vanguard 1 Rocket - Visible Passes

Search period start: 02 August 2014 00:00
Search period end: 12 August 2014 00:00
Orbit: 651 x 4229 km, 34.3° (Epoch: 29 July)

Date Brightness Start Highest point End Pass type
(mag) Time Alt. Az. Time Alt. Az. Time Alt. Az.
02 Aug 12.1 19:16:28 10° W 19:29:13 20° NW 19:44:39 10° N visible
03 Aug 11.8 18:02:09 10° W 18:15:57 29° NW 18:35:08 10° NNE visible
04 Aug 12.2 19:24:16 10° WNW 19:32:48 14° NW 19:42:31 10° NNW visible
05 Aug 12.1 18:07:39 10° W 18:19:35 22° NW 18:35:31 10° N visible
07 Aug 12.2 18:14:24 10° WNW 18:23:21 16° NW 18:34:25 10° N visible
